GEFSGL_prec_meanprecacc_246.txt.gz
Total_Precipitation_Accumulation
1.22 1.22 1.19 1.15 1.06 1.05 1.08 1.07 1.06 1.05 1.09 1.06 0.97 0.91 0.99 1.00 0.96 1.02 1.09 1.16 1.22 1.36 1.50 1.63 1.78 2.04 2.34 2.35 2.29 2.16 2.03 1.90 1.70 1.53 1.33 1.26 1.56 1.66 1.59 1.47 1.44 1.40 1.18
1.14 1.15 1.12 1.02 0.96 0.94 0.92 0.87 0.78 0.73 0.75 0.85 0.94 0.88 0.86 0.90 0.93 0.98 1.00 1.05 1.09 1.19 1.28 1.41 1.59 1.86 2.19 2.40 2.48 2.37 2.20 2.05 1.93 1.79 1.47 1.23 1.35 1.67 1.80 1.74 1.53 1.39 1.24
1.17 1.05 0.93 0.89 0.85 0.86 0.78 0.73 0.69 0.61 0.59 0.63 0.72 0.72 0.81 0.90 0.93 0.96 0.96 1.00 1.03 1.11 1.25 1.31 1.36 1.54 1.73 1.93 2.12 2.25 2.23 2.20 2.19 1.96 1.66 1.39 1.32 1.44 1.68 1.70 1.63 1.62 1.39
1.25 1.16 1.02 0.93 0.87 0.82 0.75 0.72 0.67 0.64 0.66 0.71 0.81 0.84 0.78 0.77 0.82 0.94 0.98 0.94 0.92 0.95 1.03 1.12 1.21 1.25 1.42 1.55 1.66 1.86 2.06 2.30 2.38 2.23 1.95 1.63 1.50 1.38 1.49 1.65 1.72 1.68 1.60
1.23 1.23 1.09 1.03 0.96 0.81 0.75 0.73 0.70 0.74 0.71 0.73 0.82 0.91 0.96 0.91 0.88 0.97 0.94 0.93 0.92 0.90 0.94 0.94 1.01 1.03 1.09 1.27 1.32 1.54 1.86 2.12 2.23 2.30 2.17 1.86 1.59 1.41 1.20 1.31 1.58 1.80 1.81
0.89 0.97 0.94 0.85 0.75 0.71 0.71 0.67 0.63 0.62 0.58 0.57 0.60 0.67 0.76 0.81 1.03 0.99 0.82 0.78 0.83 0.88 0.93 0.92 0.94 0.87 0.85 0.91 1.04 1.17 1.47 1.68 1.82 1.90 1.92 1.76 1.54 1.41 1.36 1.33 1.40 1.55 1.61
0.60 0.69 0.69 0.64 0.58 0.56 0.58 0.56 0.52 0.47 0.48 0.46 0.45 0.46 0.52 0.68 0.78 0.61 0.59 0.63 0.77 0.88 0.95 0.98 0.95 0.88 0.91 0.92 0.93 0.94 1.01 1.18 1.40 1.61 1.64 1.54 1.60 1.51 1.44 1.33 1.35 1.36 1.35
0.35 0.42 0.43 0.43 0.43 0.43 0.44 0.43 0.42 0.41 0.41 0.40 0.44 0.51 0.53 0.56 0.64 0.53 0.50 0.59 0.79 0.91 0.91 0.87 0.94 0.95 0.97 1.03 0.95 1.02 0.97 0.95 1.05 1.10 1.23 1.43 1.58 1.76 1.74 1.63 1.63 1.56 1.47
0.18 0.21 0.23 0.24 0.28 0.33 0.34 0.38 0.47 0.49 0.46 0.46 0.56 0.63 0.57 0.50 0.56 0.56 0.59 0.72 0.85 0.93 0.89 0.90 0.97 1.01 1.14 1.18 1.09 1.14 1.10 1.07 1.04 1.15 1.24 1.34 1.43 1.55 1.70 1.74 1.70 1.66 1.52
0.12 0.12 0.15 0.18 0.21 0.25 0.30 0.33 0.33 0.35 0.40 0.47 0.48 0.46 0.47 0.54 0.62 0.59 0.69 0.85 0.99 1.08 1.04 1.03 1.22 1.17 1.16 1.11 1.07 1.21 1.18 1.05 0.97 1.01 1.07 1.15 1.19 1.28 1.42 1.47 1.59 1.66 1.57
0.14 0.15 0.17 0.18 0.20 0.23 0.21 0.17 0.19 0.23 0.25 0.27 0.28 0.34 0.41 0.56 0.61 0.64 0.82 0.91 0.98 1.13 1.14 1.11 1.06 1.19 1.13 1.05 1.04 1.09 1.22 1.11 1.03 1.06 1.06 1.06 1.08 1.12 1.16 1.23 1.35 1.49 1.53
0.14 0.15 0.16 0.15 0.14 0.15 0.15 0.13 0.13 0.16 0.19 0.23 0.25 0.30 0.35 0.41 0.48 0.55 0.69 0.81 0.90 1.06 1.15 1.05 0.94 1.17 1.12 1.02 0.93 0.95 1.10 1.17 1.17 1.20 1.19 1.10 1.02 0.99 0.98 1.04 1.14 1.25 1.35
0.13 0.14 0.16 0.16 0.15 0.11 0.10 0.13 0.14 0.15 0.17 0.20 0.25 0.31 0.39 0.42 0.43 0.50 0.56 0.65 0.78 0.96 1.01 1.02 1.03 1.05 0.96 0.91 1.00 1.03 1.06 1.09 1.18 1.24 1.13 0.98 0.92 0.90 0.97 1.08 1.19 1.28 1.35
0.13 0.14 0.16 0.16 0.17 0.13 0.12 0.12 0.13 0.13 0.15 0.20 0.26 0.33 0.38 0.42 0.44 0.55 0.65 0.67 0.76 0.83 0.82 0.86 0.89 0.85 0.83 0.87 0.93 1.02 1.08 1.14 1.17 1.11 1.00 0.88 0.88 0.94 0.99 1.02 1.16 1.29 1.42
0.12 0.14 0.14 0.17 0.19 0.15 0.12 0.11 0.12 0.13 0.17 0.23 0.27 0.31 0.32 0.34 0.41 0.54 0.69 0.78 0.90 0.99 0.99 0.87 0.86 0.84 0.82 0.82 0.86 0.91 0.96 0.97 1.00 0.97 0.93 0.92 0.91 0.94 0.95 0.95 1.05 1.12 1.13
0.13 0.14 0.14 0.13 0.14 0.15 0.16 0.13 0.12 0.13 0.15 0.17 0.19 0.23 0.28 0.32 0.34 0.37 0.49 0.65 0.83 1.08 1.31 1.25 1.22 1.13 1.03 0.92 0.85 0.81 0.79 0.81 0.84 0.89 0.89 0.88 0.89 0.94 1.00 1.00 1.04 1.11 1.10
0.10 0.11 0.12 0.12 0.11 0.11 0.14 0.18 0.19 0.16 0.12 0.11 0.12 0.17 0.24 0.31 0.30 0.35 0.42 0.48 0.60 0.90 1.27 1.26 1.23 1.09 0.96 0.90 0.80 0.70 0.65 0.67 0.76 0.76 0.78 0.82 0.83 0.88 0.94 0.97 0.98 1.04 1.07
0.09 0.09 0.11 0.13 0.13 0.13 0.13 0.19 0.30 0.35 0.29 0.17 0.14 0.15 0.21 0.30 0.36 0.45 0.55 0.63 0.67 0.80 0.94 0.95 0.88 0.83 0.76 0.64 0.59 0.58 0.55 0.59 0.69 0.71 0.72 0.73 0.76 0.81 0.84 0.91 0.95 0.97 1.02
0.09 0.11 0.15 0.19 0.18 0.16 0.16 0.24 0.30 0.24 0.22 0.23 0.20 0.17 0.20 0.23 0.28 0.36 0.48 0.56 0.57 0.60 0.60 0.56 0.51 0.51 0.51 0.49 0.48 0.47 0.49 0.52 0.59 0.67 0.70 0.69 0.70 0.75 0.80 0.84 0.92 1.02 1.03
0.08 0.12 0.16 0.24 0.23 0.16 0.17 0.21 0.20 0.19 0.23 0.25 0.24 0.23 0.24 0.25 0.25 0.29 0.35 0.39 0.38 0.39 0.38 0.37 0.36 0.37 0.40 0.40 0.43 0.45 0.46 0.48 0.53 0.60 0.65 0.70 0.71 0.71 0.75 0.82 0.87 0.91 0.92
0.10 0.12 0.15 0.20 0.24 0.19 0.18 0.20 0.18 0.18 0.21 0.23 0.23 0.25 0.27 0.30 0.31 0.32 0.31 0.31 0.33 0.36 0.37 0.37 0.35 0.37 0.41 0.41 0.44 0.48 0.51 0.53 0.55 0.63 0.65 0.67 0.72 0.74 0.75 0.78 0.82 0.83 0.86
0.11 0.12 0.14 0.17 0.20 0.19 0.18 0.20 0.21 0.19 0.18 0.19 0.21 0.23 0.26 0.29 0.30 0.31 0.30 0.31 0.31 0.34 0.39 0.43 0.42 0.42 0.41 0.44 0.49 0.53 0.54 0.56 0.59 0.63 0.70 0.72 0.72 0.73 0.75 0.77 0.81 0.83 0.84
0.12 0.14 0.14 0.15 0.17 0.17 0.16 0.16 0.20 0.21 0.20 0.20 0.22 0.23 0.25 0.27 0.29 0.32 0.33 0.34 0.38 0.41 0.39 0.40 0.44 0.45 0.43 0.44 0.48 0.55 0.60 0.62 0.65 0.70 0.78 0.78 0.75 0.75 0.77 0.77 0.78 0.82 0.85
0.16 0.17 0.17 0.18 0.18 0.19 0.18 0.18 0.19 0.19 0.22 0.25 0.26 0.25 0.27 0.31 0.34 0.32 0.32 0.38 0.41 0.41 0.40 0.39 0.41 0.44 0.46 0.47 0.50 0.52 0.55 0.60 0.67 0.72 0.78 0.83 0.82 0.78 0.80 0.85 0.85 0.87 0.93
0.19 0.20 0.20 0.20 0.22 0.23 0.24 0.24 0.23 0.24 0.26 0.29 0.27 0.27 0.26 0.28 0.31 0.31 0.32 0.37 0.40 0.39 0.39 0.40 0.41 0.43 0.46 0.48 0.51 0.53 0.60 0.65 0.68 0.71 0.77 0.85 0.88 0.86 0.86 0.91 0.97 0.99 1.03
0.20 0.22 0.23 0.24 0.25 0.27 0.28 0.28 0.28 0.28 0.28 0.28 0.27 0.29 0.31 0.32 0.34 0.35 0.37 0.39 0.41 0.42 0.42 0.43 0.43 0.44 0.44 0.46 0.51 0.59 0.64 0.61 0.64 0.71 0.77 0.87 0.96 0.97 0.97 0.98 0.98 1.03 1.06

GEFSGL_prec_meanprecacc_252.txt.gz
Total_Precipitation_Accumulation
1.23 1.22 1.19 1.15 1.06 1.05 1.08 1.07 1.07 1.06 1.10 1.07 0.97 0.92 1.01 1.01 0.97 1.03 1.09 1.17 1.23 1.36 1.51 1.64 1.80 2.05 2.35 2.37 2.30 2.18 2.05 1.92 1.71 1.54 1.35 1.27 1.57 1.67 1.60 1.48 1.45 1.41 1.18
1.14 1.16 1.13 1.03 0.96 0.95 0.92 0.87 0.78 0.74 0.76 0.85 0.94 0.88 0.87 0.91 0.93 0.99 1.01 1.06 1.10 1.20 1.30 1.43 1.60 1.87 2.20 2.41 2.50 2.38 2.21 2.07 1.95 1.80 1.48 1.24 1.35 1.68 1.81 1.74 1.54 1.39 1.25
1.18 1.05 0.95 0.90 0.86 0.86 0.78 0.73 0.70 0.61 0.60 0.64 0.73 0.73 0.82 0.90 0.94 0.97 0.97 1.01 1.04 1.12 1.26 1.32 1.37 1.56 1.74 1.94 2.13 2.27 2.25 2.22 2.20 1.97 1.66 1.40 1.33 1.45 1.70 1.71 1.63 1.62 1.40
1.25 1.16 1.03 0.94 0.87 0.83 0.77 0.73 0.68 0.64 0.66 0.71 0.82 0.85 0.79 0.78 0.84 0.95 0.99 0.95 0.93 0.96 1.04 1.13 1.22 1.26 1.43 1.56 1.67 1.87 2.09 2.33 2.40 2.24 1.97 1.64 1.51 1.40 1.50 1.65 1.72 1.68 1.60
1.23 1.23 1.10 1.04 0.97 0.82 0.76 0.75 0.71 0.74 0.72 0.74 0.83 0.92 0.97 0.92 0.89 0.97 0.95 0.94 0.94 0.91 0.95 0.95 1.02 1.04 1.11 1.28 1.33 1.55 1.88 2.16 2.26 2.32 2.19 1.87 1.61 1.43 1.21 1.32 1.58 1.80 1.81
0.89 0.97 0.95 0.86 0.76 0.72 0.72 0.68 0.64 0.63 0.59 0.58 0.61 0.67 0.76 0.82 1.05 1.01 0.83 0.78 0.84 0.89 0.93 0.93 0.95 0.89 0.87 0.93 1.06 1.18 1.48 1.70 1.85 1.93 1.95 1.79 1.57 1.44 1.39 1.34 1.41 1.56 1.61
0.61 0.70 0.70 0.65 0.59 0.57 0.59 0.57 0.52 0.48 0.49 0.46 0.46 0.47 0.52 0.70 0.80 0.63 0.61 0.64 0.77 0.88 0.95 0.99 0.96 0.90 0.92 0.93 0.94 0.95 1.02 1.20 1.42 1.63 1.66 1.56 1.62 1.53 1.46 1.35 1.35 1.37 1.35
0.37 0.43 0.44 0.44 0.44 0.45 0.45 0.44 0.43 0.42 0.41 0.41 0.45 0.52 0.54 0.58 0.66 0.54 0.51 0.59 0.80 0.92 0.92 0.88 0.95 0.96 0.98 1.04 0.96 1.02 0.98 0.96 1.06 1.10 1.24 1.45 1.60 1.77 1.74 1.64 1.64 1.57 1.48
0.19 0.23 0.24 0.26 0.30 0.35 0.36 0.39 0.47 0.49 0.47 0.48 0.58 0.64 0.58 0.52 0.57 0.57 0.60 0.72 0.86 0.94 0.90 0.91 0.98 1.02 1.15 1.20 1.09 1.14 1.11 1.08 1.05 1.16 1.25 1.36 1.45 1.56 1.71 1.75 1.71 1.68 1.53
0.13 0.13 0.17 0.19 0.22 0.27 0.32 0.34 0.35 0.36 0.41 0.48 0.51 0.48 0.48 0.55 0.63 0.60 0.69 0.85 0.99 1.09 1.05 1.04 1.23 1.19 1.18 1.12 1.08 1.22 1.19 1.05 0.98 1.02 1.08 1.17 1.20 1.30 1.43 1.48 1.61 1.68 1.58
0.15 0.16 0.19 0.22 0.23 0.26 0.23 0.19 0.21 0.25 0.27 0.29 0.30 0.36 0.42 0.56 0.61 0.64 0.83 0.91 0.98 1.13 1.15 1.12 1.06 1.20 1.14 1.06 1.05 1.09 1.23 1.11 1.03 1.06 1.06 1.07 1.09 1.12 1.17 1.24 1.36 1.49 1.54
0.15 0.16 0.17 0.17 0.17 0.18 0.18 0.16 0.15 0.17 0.21 0.25 0.27 0.31 0.37 0.41 0.48 0.55 0.69 0.81 0.90 1.06 1.15 1.05 0.94 1.17 1.12 1.02 0.94 0.95 1.11 1.17 1.17 1.21 1.19 1.10 1.02 0.99 0.99 1.05 1.15 1.26 1.35
0.15 0.15 0.17 0.17 0.17 0.14 0.13 0.16 0.17 0.17 0.19 0.21 0.26 0.33 0.40 0.43 0.43 0.51 0.57 0.65 0.78 0.96 1.02 1.03 1.03 1.06 0.96 0.92 1.01 1.04 1.06 1.09 1.18 1.24 1.13 0.98 0.92 0.91 0.98 1.09 1.20 1.28 1.35
0.14 0.15 0.17 0.18 0.19 0.15 0.15 0.15 0.15 0.15 0.17 0.21 0.27 0.34 0.39 0.43 0.45 0.56 0.66 0.67 0.76 0.84 0.83 0.86 0.90 0.86 0.84 0.87 0.93 1.03 1.08 1.14 1.17 1.11 1.00 0.88 0.89 0.95 0.99 1.02 1.16 1.29 1.42
0.13 0.15 0.16 0.19 0.20 0.17 0.14 0.13 0.14 0.15 0.20 0.25 0.29 0.33 0.33 0.35 0.42 0.55 0.70 0.79 0.91 1.00 1.00 0.87 0.86 0.85 0.82 0.82 0.86 0.91 0.96 0.97 1.00 0.98 0.94 0.93 0.92 0.94 0.96 0.95 1.05 1.12 1.13
0.14 0.14 0.15 0.14 0.15 0.16 0.17 0.14 0.14 0.15 0.18 0.21 0.23 0.26 0.30 0.34 0.35 0.38 0.49 0.66 0.83 1.09 1.31 1.25 1.22 1.14 1.03 0.92 0.86 0.81 0.79 0.81 0.85 0.89 0.90 0.88 0.89 0.94 1.00 1.00 1.05 1.11 1.10
0.11 0.12 0.12 0.13 0.12 0.12 0.16 0.20 0.20 0.17 0.14 0.13 0.15 0.21 0.27 0.34 0.33 0.37 0.43 0.48 0.60 0.91 1.28 1.26 1.23 1.09 0.97 0.90 0.80 0.70 0.65 0.68 0.76 0.77 0.79 0.82 0.83 0.88 0.94 0.97 0.98 1.04 1.07
0.11 0.11 0.12 0.15 0.15 0.15 0.16 0.22 0.32 0.36 0.30 0.19 0.16 0.18 0.24 0.33 0.39 0.48 0.57 0.64 0.68 0.81 0.94 0.95 0.89 0.84 0.77 0.65 0.60 0.58 0.55 0.60 0.70 0.72 0.74 0.75 0.77 0.83 0.85 0.92 0.96 0.98 1.03
0.11 0.13 0.17 0.21 0.21 0.19 0.19 0.26 0.32 0.25 0.23 0.24 0.21 0.19 0.22 0.25 0.31 0.40 0.51 0.58 0.58 0.62 0.62 0.58 0.53 0.53 0.53 0.50 0.49 0.48 0.49 0.54 0.61 0.68 0.71 0.70 0.72 0.76 0.81 0.86 0.94 1.04 1.05
0.09 0.13 0.18 0.25 0.25 0.19 0.20 0.23 0.22 0.21 0.24 0.26 0.25 0.24 0.26 0.26 0.27 0.31 0.38 0.41 0.40 0.41 0.40 0.40 0.39 0.39 0.42 0.42 0.45 0.46 0.46 0.49 0.54 0.61 0.66 0.71 0.72 0.72 0.76 0.83 0.88 0.93 0.93
0.11 0.13 0.16 0.22 0.25 0.21 0.21 0.23 0.21 0.21 0.24 0.25 0.25 0.27 0.30 0.31 0.32 0.33 0.33 0.32 0.34 0.37 0.39 0.40 0.38 0.40 0.43 0.43 0.46 0.49 0.52 0.54 0.56 0.64 0.66 0.69 0.73 0.75 0.76 0.80 0.84 0.84 0.88
0.12 0.14 0.15 0.19 0.21 0.21 0.20 0.22 0.25 0.23 0.22 0.23 0.25 0.27 0.29 0.31 0.31 0.32 0.31 0.32 0.32 0.35 0.40 0.44 0.44 0.44 0.43 0.46 0.50 0.54 0.56 0.58 0.60 0.64 0.71 0.73 0.73 0.75 0.77 0.79 0.83 0.86 0.87
0.14 0.16 0.16 0.17 0.19 0.19 0.18 0.18 0.22 0.24 0.23 0.23 0.25 0.25 0.27 0.29 0.30 0.33 0.34 0.35 0.39 0.42 0.41 0.41 0.46 0.47 0.45 0.46 0.50 0.57 0.63 0.64 0.66 0.72 0.79 0.80 0.76 0.77 0.80 0.79 0.81 0.86 0.88
0.17 0.18 0.19 0.20 0.21 0.21 0.21 0.21 0.22 0.21 0.24 0.28 0.28 0.27 0.29 0.33 0.35 0.33 0.33 0.39 0.42 0.42 0.42 0.42 0.43 0.46 0.48 0.50 0.52 0.55 0.58 0.62 0.69 0.74 0.80 0.84 0.84 0.81 0.83 0.88 0.88 0.90 0.97
0.21 0.22 0.23 0.23 0.25 0.26 0.26 0.26 0.26 0.25 0.27 0.31 0.28 0.28 0.28 0.29 0.32 0.32 0.34 0.39 0.41 0.40 0.41 0.42 0.43 0.45 0.48 0.50 0.54 0.55 0.62 0.67 0.70 0.74 0.79 0.87 0.89 0.88 0.88 0.93 0.99 1.02 1.06
0.23 0.25 0.26 0.27 0.28 0.29 0.30 0.30 0.30 0.29 0.29 0.28 0.28 0.30 0.31 0.32 0.35 0.36 0.38 0.40 0.42 0.43 0.43 0.44 0.45 0.46 0.46 0.48 0.53 0.62 0.66 0.64 0.66 0.73 0.79 0.89 0.97 0.98 0.99 1.00 1.00 1.05 1.09

GEFSGL_prec_meanprecacc_258.txt.gz
Total_Precipitation_Accumulation
1.24 1.25 1.21 1.17 1.08 1.07 1.09 1.08 1.07 1.06 1.10 1.07 0.97 0.92 1.02 1.03 0.98 1.04 1.11 1.18 1.25 1.38 1.52 1.65 1.80 2.06 2.35 2.38 2.32 2.19 2.07 1.94 1.73 1.57 1.38 1.29 1.57 1.68 1.60 1.48 1.45 1.41 1.19
1.15 1.18 1.15 1.05 0.98 0.95 0.93 0.88 0.78 0.74 0.76 0.86 0.95 0.89 0.87 0.92 0.94 0.99 1.02 1.06 1.11 1.21 1.31 1.44 1.61 1.88 2.21 2.42 2.51 2.40 2.23 2.09 1.96 1.81 1.49 1.25 1.36 1.68 1.82 1.75 1.55 1.40 1.25
1.19 1.07 0.96 0.91 0.87 0.87 0.79 0.74 0.70 0.62 0.60 0.64 0.73 0.73 0.82 0.91 0.94 0.98 0.98 1.01 1.05 1.13 1.27 1.33 1.38 1.57 1.76 1.95 2.14 2.28 2.26 2.23 2.21 1.98 1.67 1.40 1.33 1.46 1.70 1.72 1.65 1.63 1.41
1.26 1.17 1.04 0.95 0.89 0.84 0.78 0.74 0.69 0.65 0.66 0.71 0.82 0.85 0.80 0.79 0.84 0.95 0.99 0.95 0.94 0.96 1.05 1.15 1.23 1.27 1.44 1.57 1.68 1.88 2.10 2.34 2.40 2.24 1.97 1.65 1.52 1.41 1.51 1.66 1.73 1.69 1.61
1.24 1.24 1.11 1.05 0.98 0.84 0.77 0.77 0.73 0.75 0.73 0.74 0.83 0.93 0.98 0.92 0.90 0.98 0.95 0.94 0.94 0.92 0.96 0.96 1.03 1.05 1.12 1.30 1.34 1.56 1.89 2.17 2.27 2.33 2.20 1.88 1.61 1.44 1.22 1.33 1.59 1.82 1.83
0.90 0.99 0.98 0.89 0.78 0.74 0.74 0.70 0.66 0.65 0.61 0.59 0.62 0.69 0.77 0.83 1.07 1.02 0.84 0.79 0.84 0.89 0.94 0.93 0.96 0.90 0.88 0.94 1.07 1.19 1.49 1.71 1.86 1.95 1.96 1.79 1.58 1.45 1.40 1.35 1.42 1.57 1.62
0.63 0.74 0.75 0.69 0.62 0.60 0.63 0.60 0.54 0.49 0.50 0.47 0.47 0.47 0.53 0.70 0.81 0.65 0.62 0.65 0.78 0.88 0.95 0.99 0.97 0.90 0.93 0.94 0.95 0.96 1.03 1.21 1.43 1.64 1.67 1.57 1.63 1.54 1.47 1.36 1.36 1.37 1.36
0.39 0.47 0.48 0.47 0.48 0.49 0.50 0.48 0.46 0.43 0.42 0.41 0.46 0.52 0.54 0.59 0.67 0.56 0.52 0.60 0.80 0.92 0.92 0.88 0.95 0.97 0.99 1.04 0.97 1.03 0.98 0.96 1.06 1.11 1.25 1.46 1.61 1.78 1.76 1.65 1.64 1.57 1.48
0.21 0.25 0.27 0.29 0.35 0.41 0.42 0.45 0.52 0.52 0.49 0.49 0.59 0.65 0.59 0.54 0.59 0.58 0.61 0.73 0.87 0.95 0.91 0.92 0.99 1.03 1.16 1.21 1.10 1.15 1.11 1.08 1.05 1.16 1.26 1.37 1.46 1.58 1.73 1.76 1.72 1.68 1.53
0.13 0.15 0.19 0.21 0.26 0.34 0.40 0.42 0.41 0.40 0.45 0.52 0.53 0.49 0.49 0.57 0.64 0.61 0.70 0.87 1.00 1.10 1.06 1.05 1.24 1.20 1.19 1.13 1.09 1.23 1.19 1.06 0.98 1.03 1.08 1.17 1.21 1.32 1.45 1.49 1.62 1.68 1.59
0.15 0.17 0.20 0.22 0.25 0.29 0.28 0.25 0.28 0.31 0.32 0.32 0.33 0.38 0.44 0.58 0.63 0.65 0.84 0.92 0.99 1.14 1.16 1.13 1.08 1.21 1.15 1.07 1.05 1.10 1.23 1.11 1.03 1.07 1.07 1.07 1.09 1.13 1.18 1.25 1.38 1.50 1.54
0.16 0.17 0.18 0.17 0.18 0.19 0.20 0.20 0.21 0.24 0.27 0.29 0.31 0.34 0.40 0.43 0.50 0.57 0.70 0.83 0.91 1.07 1.16 1.06 0.96 1.18 1.13 1.03 0.94 0.96 1.11 1.18 1.17 1.21 1.19 1.10 1.02 1.00 0.99 1.06 1.16 1.27 1.36
0.16 0.16 0.18 0.18 0.18 0.15 0.14 0.18 0.23 0.24 0.26 0.27 0.30 0.35 0.43 0.45 0.45 0.53 0.58 0.66 0.79 0.97 1.03 1.04 1.05 1.07 0.98 0.92 1.01 1.04 1.07 1.10 1.19 1.24 1.13 0.98 0.92 0.91 0.98 1.09 1.20 1.29 1.36
0.14 0.16 0.18 0.18 0.19 0.16 0.15 0.16 0.18 0.20 0.22 0.26 0.31 0.36 0.41 0.45 0.48 0.58 0.68 0.69 0.77 0.85 0.84 0.87 0.91 0.87 0.85 0.88 0.94 1.03 1.08 1.14 1.17 1.11 1.00 0.88 0.89 0.95 0.99 1.03 1.17 1.29 1.42
0.14 0.16 0.16 0.19 0.21 0.17 0.14 0.14 0.16 0.18 0.24 0.30 0.33 0.36 0.36 0.37 0.44 0.57 0.72 0.81 0.92 1.01 1.01 0.88 0.87 0.85 0.83 0.83 0.87 0.92 0.97 0.97 1.00 0.98 0.94 0.93 0.92 0.95 0.96 0.95 1.05 1.13 1.14
0.14 0.15 0.15 0.15 0.15 0.17 0.17 0.15 0.15 0.17 0.21 0.26 0.29 0.31 0.34 0.38 0.38 0.41 0.51 0.67 0.85 1.10 1.33 1.26 1.23 1.15 1.04 0.94 0.88 0.84 0.81 0.83 0.85 0.90 0.91 0.89 0.89 0.95 1.00 1.01 1.05 1.11 1.10
0.12 0.13 0.13 0.13 0.12 0.13 0.16 0.20 0.21 0.19 0.16 0.17 0.20 0.27 0.32 0.38 0.36 0.40 0.45 0.50 0.62 0.92 1.29 1.28 1.25 1.11 0.99 0.92 0.82 0.72 0.67 0.70 0.78 0.78 0.81 0.84 0.85 0.89 0.96 0.98 0.99 1.04 1.08
0.13 0.12 0.13 0.15 0.16 0.16 0.17 0.23 0.33 0.38 0.32 0.21 0.21 0.23 0.29 0.38 0.43 0.51 0.60 0.67 0.70 0.83 0.96 0.97 0.91 0.86 0.79 0.66 0.62 0.60 0.58 0.63 0.72 0.74 0.76 0.77 0.79 0.85 0.87 0.94 0.97 0.99 1.04
0.13 0.15 0.18 0.23 0.22 0.20 0.20 0.28 0.33 0.27 0.25 0.26 0.25 0.23 0.26 0.31 0.37 0.44 0.55 0.61 0.60 0.64 0.64 0.60 0.56 0.55 0.56 0.52 0.51 0.50 0.51 0.55 0.63 0.70 0.73 0.72 0.74 0.78 0.83 0.88 0.95 1.05 1.06
0.10 0.15 0.19 0.26 0.26 0.19 0.21 0.25 0.24 0.23 0.26 0.28 0.27 0.26 0.29 0.30 0.32 0.37 0.43 0.45 0.44 0.44 0.42 0.42 0.41 0.42 0.45 0.45 0.47 0.49 0.50 0.52 0.57 0.64 0.69 0.74 0.74 0.74 0.77 0.85 0.90 0.95 0.95
0.12 0.15 0.17 0.23 0.25 0.21 0.21 0.24 0.23 0.23 0.26 0.28 0.28 0.31 0.33 0.34 0.35 0.37 0.38 0.36 0.38 0.41 0.42 0.42 0.40 0.41 0.44 0.44 0.47 0.51 0.54 0.57 0.59 0.67 0.70 0.72 0.76 0.78 0.78 0.81 0.86 0.86 0.89
0.13 0.15 0.16 0.19 0.22 0.21 0.21 0.23 0.26 0.24 0.24 0.25 0.28 0.30 0.32 0.33 0.33 0.34 0.34 0.34 0.35 0.38 0.44 0.47 0.47 0.46 0.45 0.47 0.51 0.55 0.57 0.59 0.62 0.67 0.73 0.75 0.76 0.77 0.79 0.81 0.85 0.87 0.88
0.15 0.17 0.17 0.18 0.20 0.20 0.19 0.19 0.23 0.25 0.24 0.25 0.27 0.27 0.29 0.31 0.32 0.35 0.36 0.38 0.41 0.44 0.42 0.43 0.48 0.48 0.46 0.47 0.51 0.58 0.64 0.65 0.68 0.73 0.81 0.82 0.78 0.78 0.81 0.81 0.82 0.87 0.89
0.18 0.19 0.20 0.21 0.22 0.22 0.23 0.23 0.24 0.23 0.26 0.29 0.30 0.28 0.30 0.35 0.37 0.35 0.35 0.41 0.44 0.44 0.43 0.43 0.44 0.48 0.49 0.51 0.53 0.56 0.59 0.64 0.70 0.75 0.81 0.86 0.85 0.82 0.84 0.89 0.89 0.91 0.98
0.22 0.23 0.24 0.25 0.27 0.28 0.28 0.29 0.28 0.28 0.30 0.33 0.30 0.29 0.29 0.30 0.34 0.35 0.36 0.40 0.43 0.42 0.42 0.43 0.44 0.46 0.48 0.51 0.54 0.56 0.63 0.68 0.71 0.75 0.81 0.89 0.91 0.90 0.89 0.95 1.01 1.03 1.08
0.24 0.26 0.28 0.29 0.30 0.32 0.32 0.31 0.32 0.31 0.31 0.31 0.30 0.31 0.32 0.33 0.36 0.38 0.39 0.42 0.44 0.44 0.44 0.46 0.46 0.47 0.47 0.48 0.54 0.63 0.67 0.65 0.67 0.74 0.81 0.91 0.99 1.00 1.00 1.02 1.02 1.06 1.10

GEFSGL_prec_meanprecacc_264.txt.gz
Total_Precipitation_Accumulation
1.25 1.26 1.25 1.21 1.11 1.10 1.12 1.10 1.08 1.07 1.11 1.08 0.98 0.93 1.04 1.04 0.98 1.04 1.11 1.18 1.25 1.39 1.53 1.67 1.82 2.07 2.37 2.40 2.34 2.22 2.12 1.99 1.77 1.60 1.41 1.33 1.61 1.72 1.64 1.50 1.47 1.43 1.20
1.16 1.19 1.17 1.07 1.00 0.97 0.96 0.89 0.79 0.75 0.77 0.86 0.95 0.89 0.88 0.92 0.94 1.00 1.02 1.06 1.11 1.22 1.32 1.45 1.62 1.90 2.23 2.44 2.53 2.42 2.26 2.12 1.99 1.85 1.53 1.29 1.40 1.72 1.85 1.77 1.57 1.42 1.27
1.19 1.08 0.98 0.93 0.89 0.89 0.81 0.76 0.71 0.62 0.61 0.64 0.73 0.73 0.82 0.91 0.94 0.98 0.98 1.02 1.05 1.13 1.28 1.34 1.39 1.58 1.77 1.96 2.16 2.30 2.27 2.24 2.23 1.99 1.70 1.43 1.37 1.49 1.73 1.74 1.67 1.65 1.42
1.26 1.17 1.05 0.96 0.91 0.87 0.80 0.76 0.70 0.66 0.67 0.72 0.82 0.85 0.81 0.79 0.84 0.95 1.00 0.96 0.94 0.97 1.06 1.16 1.24 1.28 1.44 1.58 1.69 1.90 2.12 2.35 2.41 2.25 1.99 1.67 1.55 1.43 1.53 1.68 1.75 1.70 1.62
1.25 1.24 1.11 1.06 1.00 0.86 0.78 0.79 0.75 0.76 0.73 0.75 0.84 0.93 0.99 0.94 0.91 0.98 0.95 0.95 0.95 0.92 0.96 0.97 1.03 1.06 1.12 1.30 1.34 1.57 1.91 2.18 2.28 2.33 2.20 1.89 1.63 1.45 1.23 1.33 1.60 1.82 1.83
0.91 1.00 0.98 0.90 0.80 0.76 0.75 0.72 0.67 0.66 0.62 0.60 0.63 0.69 0.77 0.84 1.09 1.03 0.85 0.80 0.85 0.90 0.94 0.93 0.96 0.90 0.88 0.95 1.07 1.20 1.50 1.72 1.86 1.95 1.96 1.80 1.58 1.46 1.41 1.36 1.42 1.57 1.63
0.64 0.75 0.76 0.70 0.63 0.61 0.64 0.61 0.56 0.50 0.51 0.48 0.48 0.48 0.53 0.71 0.82 0.65 0.63 0.66 0.78 0.89 0.96 0.99 0.97 0.90 0.93 0.94 0.96 0.97 1.03 1.21 1.43 1.65 1.68 1.57 1.63 1.55 1.48 1.36 1.36 1.38 1.36
0.40 0.47 0.49 0.49 0.49 0.50 0.51 0.49 0.49 0.46 0.44 0.43 0.47 0.54 0.56 0.60 0.68 0.56 0.52 0.60 0.81 0.93 0.92 0.88 0.96 0.97 0.99 1.05 0.99 1.04 0.99 0.97 1.07 1.11 1.25 1.46 1.62 1.79 1.77 1.65 1.65 1.57 1.48
0.22 0.26 0.28 0.31 0.36 0.42 0.43 0.46 0.55 0.55 0.51 0.51 0.61 0.67 0.62 0.56 0.61 0.59 0.62 0.74 0.88 0.96 0.91 0.92 1.00 1.04 1.17 1.21 1.11 1.16 1.12 1.09 1.06 1.17 1.27 1.38 1.48 1.60 1.75 1.78 1.73 1.68 1.54
0.15 0.16 0.20 0.23 0.28 0.35 0.42 0.43 0.43 0.43 0.47 0.54 0.56 0.52 0.52 0.60 0.67 0.63 0.71 0.87 1.00 1.11 1.07 1.06 1.26 1.22 1.21 1.14 1.09 1.23 1.20 1.06 0.99 1.03 1.09 1.18 1.22 1.33 1.47 1.52 1.64 1.70 1.60
0.16 0.19 0.22 0.25 0.28 0.31 0.30 0.27 0.30 0.34 0.34 0.34 0.35 0.39 0.46 0.61 0.66 0.68 0.86 0.93 1.00 1.15 1.17 1.14 1.09 1.22 1.16 1.08 1.06 1.10 1.24 1.12 1.04 1.07 1.07 1.08 1.10 1.14 1.19 1.26 1.39 1.52 1.57
0.17 0.18 0.20 0.20 0.21 0.21 0.22 0.22 0.22 0.26 0.28 0.30 0.32 0.36 0.42 0.48 0.54 0.60 0.73 0.84 0.92 1.08 1.17 1.07 0.98 1.20 1.15 1.05 0.95 0.97 1.12 1.19 1.18 1.22 1.20 1.11 1.04 1.01 1.00 1.06 1.16 1.28 1.38
0.17 0.18 0.20 0.19 0.20 0.17 0.16 0.20 0.24 0.25 0.27 0.28 0.31 0.37 0.46 0.49 0.49 0.57 0.61 0.68 0.80 0.98 1.04 1.05 1.06 1.08 0.99 0.94 1.03 1.06 1.08 1.11 1.20 1.25 1.14 1.00 0.93 0.92 0.98 1.09 1.21 1.29 1.36
0.15 0.17 0.19 0.19 0.20 0.17 0.16 0.18 0.19 0.21 0.23 0.28 0.33 0.38 0.43 0.48 0.50 0.61 0.71 0.72 0.80 0.86 0.85 0.88 0.92 0.88 0.86 0.89 0.95 1.04 1.10 1.16 1.19 1.12 1.01 0.89 0.89 0.95 0.99 1.03 1.17 1.30 1.43
0.14 0.16 0.17 0.20 0.21 0.18 0.15 0.15 0.17 0.19 0.25 0.31 0.35 0.38 0.37 0.39 0.47 0.60 0.75 0.84 0.96 1.06 1.04 0.90 0.88 0.86 0.84 0.83 0.88 0.92 0.98 0.99 1.02 0.99 0.95 0.94 0.93 0.95 0.97 0.96 1.06 1.14 1.15
0.15 0.15 0.15 0.15 0.16 0.17 0.18 0.15 0.16 0.17 0.22 0.27 0.30 0.33 0.36 0.40 0.41 0.43 0.53 0.71 0.90 1.15 1.37 1.29 1.25 1.16 1.05 0.95 0.89 0.85 0.83 0.84 0.87 0.91 0.92 0.90 0.90 0.96 1.01 1.02 1.06 1.13 1.12
0.12 0.13 0.13 0.14 0.13 0.13 0.16 0.21 0.22 0.19 0.17 0.17 0.21 0.28 0.34 0.39 0.37 0.42 0.47 0.52 0.65 0.96 1.32 1.31 1.28 1.14 1.01 0.94 0.84 0.74 0.69 0.72 0.80 0.81 0.83 0.86 0.86 0.91 0.97 0.99 1.00 1.06 1.09
0.13 0.13 0.14 0.16 0.16 0.16 0.17 0.23 0.34 0.38 0.32 0.22 0.21 0.24 0.32 0.41 0.45 0.54 0.63 0.69 0.72 0.84 0.97 0.99 0.92 0.87 0.80 0.69 0.64 0.62 0.60 0.64 0.74 0.77 0.79 0.80 0.83 0.88 0.90 0.96 0.99 1.00 1.05
0.14 0.16 0.19 0.24 0.23 0.20 0.21 0.28 0.34 0.27 0.25 0.27 0.26 0.24 0.28 0.34 0.41 0.49 0.58 0.63 0.62 0.65 0.65 0.61 0.56 0.56 0.57 0.54 0.53 0.53 0.54 0.58 0.65 0.72 0.75 0.75 0.77 0.83 0.88 0.92 0.99 1.09 1.09
0.12 0.16 0.20 0.27 0.27 0.20 0.22 0.26 0.25 0.24 0.27 0.29 0.29 0.27 0.30 0.31 0.34 0.41 0.48 0.49 0.46 0.45 0.43 0.43 0.42 0.43 0.46 0.47 0.49 0.51 0.52 0.55 0.60 0.66 0.71 0.76 0.76 0.76 0.80 0.88 0.93 0.98 0.98
0.13 0.15 0.18 0.24 0.27 0.22 0.23 0.25 0.24 0.24 0.27 0.29 0.30 0.32 0.34 0.35 0.37 0.39 0.41 0.40 0.42 0.43 0.43 0.42 0.40 0.42 0.45 0.46 0.49 0.53 0.57 0.59 0.62 0.69 0.72 0.74 0.78 0.80 0.80 0.84 0.88 0.88 0.92
0.14 0.15 0.16 0.20 0.23 0.23 0.22 0.24 0.27 0.25 0.25 0.27 0.29 0.32 0.34 0.35 0.35 0.36 0.37 0.38 0.39 0.41 0.45 0.49 0.48 0.48 0.47 0.50 0.54 0.59 0.60 0.62 0.64 0.69 0.75 0.77 0.77 0.79 0.81 0.83 0.87 0.90 0.91
0.16 0.18 0.17 0.18 0.21 0.21 0.20 0.20 0.24 0.26 0.25 0.26 0.28 0.29 0.32 0.33 0.34 0.37 0.39 0.41 0.45 0.47 0.44 0.45 0.50 0.51 0.49 0.50 0.54 0.61 0.67 0.68 0.70 0.75 0.83 0.83 0.80 0.79 0.82 0.82 0.84 0.89 0.92
0.19 0.20 0.21 0.22 0.23 0.23 0.23 0.23 0.24 0.24 0.26 0.30 0.31 0.30 0.33 0.37 0.39 0.37 0.37 0.44 0.47 0.47 0.46 0.46 0.47 0.51 0.53 0.54 0.56 0.58 0.60 0.65 0.71 0.77 0.83 0.88 0.86 0.83 0.85 0.90 0.91 0.93 1.00
0.22 0.24 0.24 0.25 0.27 0.28 0.29 0.29 0.28 0.28 0.30 0.33 0.31 0.31 0.31 0.33 0.37 0.37 0.39 0.44 0.47 0.46 0.45 0.46 0.46 0.49 0.52 0.54 0.56 0.58 0.65 0.70 0.73 0.76 0.82 0.90 0.92 0.90 0.90 0.97 1.03 1.05 1.10
0.25 0.26 0.28 0.29 0.31 0.32 0.32 0.32 0.32 0.32 0.32 0.32 0.31 0.33 0.34 0.36 0.39 0.41 0.43 0.47 0.49 0.48 0.47 0.48 0.49 0.49 0.49 0.51 0.56 0.65 0.70 0.67 0.69 0.76 0.82 0.92 1.00 1.00 1.01 1.02 1.03 1.08 1.12

GEFSGL_prec_meanprecacc_270.txt.gz
Total_Precipitation_Accumulation
1.26 1.27 1.25 1.21 1.12 1.11 1.14 1.12 1.09 1.09 1.13 1.10 1.00 0.95 1.05 1.04 0.99 1.05 1.12 1.19 1.27 1.41 1.55 1.67 1.82 2.07 2.38 2.42 2.37 2.25 2.16 2.04 1.82 1.65 1.46 1.37 1.66 1.76 1.69 1.56 1.55 1.51 1.28
1.17 1.20 1.18 1.07 1.01 0.99 0.97 0.91 0.80 0.77 0.78 0.87 0.96 0.90 0.89 0.93 0.95 1.01 1.03 1.07 1.12 1.23 1.34 1.46 1.62 1.91 2.25 2.46 2.56 2.45 2.29 2.16 2.03 1.90 1.58 1.33 1.44 1.77 1.89 1.83 1.64 1.49 1.33
1.20 1.09 1.00 0.94 0.90 0.90 0.82 0.77 0.73 0.64 0.62 0.65 0.74 0.74 0.83 0.91 0.95 0.99 0.99 1.03 1.06 1.15 1.30 1.36 1.41 1.59 1.79 1.99 2.18 2.33 2.30 2.27 2.26 2.03 1.74 1.48 1.41 1.54 1.79 1.79 1.72 1.70 1.46
1.27 1.18 1.06 0.97 0.92 0.87 0.80 0.77 0.71 0.67 0.68 0.73 0.83 0.86 0.81 0.80 0.84 0.95 1.00 0.98 0.97 0.99 1.07 1.17 1.25 1.30 1.46 1.60 1.71 1.93 2.15 2.38 2.44 2.28 2.03 1.71 1.58 1.46 1.56 1.72 1.79 1.74 1.65
1.25 1.25 1.12 1.07 1.01 0.87 0.79 0.79 0.76 0.78 0.75 0.76 0.85 0.94 0.99 0.95 0.91 0.98 0.96 0.96 0.97 0.94 0.98 0.98 1.05 1.07 1.14 1.32 1.36 1.59 1.93 2.20 2.30 2.36 2.23 1.92 1.65 1.47 1.26 1.37 1.64 1.86 1.86
0.91 1.00 0.99 0.90 0.80 0.77 0.76 0.72 0.69 0.68 0.64 0.61 0.64 0.70 0.78 0.85 1.09 1.04 0.86 0.80 0.86 0.91 0.95 0.95 0.97 0.92 0.89 0.96 1.08 1.21 1.52 1.73 1.88 1.97 1.98 1.82 1.61 1.48 1.42 1.38 1.46 1.61 1.67
0.65 0.75 0.76 0.70 0.64 0.62 0.65 0.62 0.58 0.51 0.52 0.50 0.49 0.49 0.54 0.72 0.83 0.66 0.64 0.66 0.79 0.90 0.97 1.01 0.98 0.91 0.94 0.95 0.97 0.97 1.04 1.22 1.44 1.66 1.69 1.58 1.64 1.56 1.49 1.38 1.38 1.39 1.38
0.40 0.48 0.49 0.49 0.50 0.51 0.51 0.50 0.50 0.46 0.45 0.44 0.50 0.57 0.58 0.61 0.70 0.57 0.53 0.61 0.81 0.93 0.93 0.89 0.97 0.99 1.01 1.06 1.00 1.05 0.99 0.97 1.07 1.12 1.26 1.47 1.63 1.80 1.78 1.66 1.65 1.58 1.49
0.23 0.27 0.29 0.31 0.37 0.43 0.44 0.47 0.56 0.56 0.53 0.52 0.62 0.69 0.64 0.59 0.64 0.62 0.63 0.75 0.88 0.96 0.92 0.93 1.02 1.06 1.19 1.23 1.13 1.17 1.13 1.09 1.07 1.18 1.28 1.39 1.49 1.61 1.76 1.80 1.75 1.71 1.56
0.17 0.18 0.22 0.25 0.29 0.37 0.43 0.44 0.44 0.44 0.48 0.54 0.57 0.53 0.53 0.62 0.71 0.67 0.74 0.88 1.01 1.11 1.07 1.07 1.27 1.23 1.22 1.16 1.11 1.25 1.21 1.07 1.00 1.04 1.10 1.19 1.23 1.34 1.49 1.54 1.67 1.74 1.64
0.18 0.21 0.24 0.27 0.30 0.33 0.32 0.28 0.31 0.35 0.35 0.34 0.36 0.40 0.46 0.62 0.68 0.72 0.90 0.95 1.02 1.17 1.18 1.15 1.10 1.23 1.17 1.09 1.07 1.11 1.25 1.13 1.05 1.08 1.08 1.08 1.11 1.15 1.20 1.28 1.41 1.56 1.62
0.18 0.19 0.21 0.22 0.23 0.25 0.25 0.24 0.24 0.28 0.30 0.32 0.33 0.38 0.43 0.49 0.55 0.62 0.77 0.88 0.95 1.10 1.19 1.09 0.99 1.21 1.15 1.05 0.96 0.98 1.13 1.21 1.20 1.23 1.22 1.14 1.05 1.03 1.03 1.09 1.18 1.30 1.41
0.18 0.18 0.20 0.20 0.22 0.20 0.20 0.23 0.27 0.27 0.29 0.29 0.32 0.39 0.48 0.50 0.50 0.59 0.65 0.73 0.84 1.00 1.06 1.07 1.07 1.10 1.00 0.95 1.03 1.07 1.09 1.12 1.21 1.26 1.16 1.01 0.95 0.95 1.02 1.13 1.23 1.32 1.39
0.16 0.18 0.20 0.20 0.21 0.19 0.19 0.21 0.23 0.24 0.26 0.30 0.35 0.40 0.44 0.49 0.51 0.62 0.73 0.75 0.84 0.90 0.87 0.90 0.94 0.89 0.87 0.90 0.96 1.05 1.10 1.16 1.19 1.13 1.03 0.90 0.91 0.97 1.01 1.06 1.20 1.33 1.45
0.15 0.17 0.17 0.20 0.22 0.19 0.16 0.17 0.20 0.22 0.28 0.35 0.38 0.40 0.40 0.40 0.48 0.61 0.76 0.85 0.98 1.09 1.07 0.92 0.90 0.88 0.85 0.84 0.88 0.93 0.99 1.00 1.03 1.00 0.96 0.95 0.94 0.97 0.98 0.98 1.08 1.17 1.18
0.16 0.17 0.17 0.16 0.16 0.18 0.19 0.17 0.18 0.20 0.26 0.31 0.34 0.36 0.38 0.42 0.42 0.44 0.55 0.72 0.92 1.19 1.42 1.35 1.29 1.18 1.07 0.96 0.90 0.86 0.84 0.85 0.88 0.93 0.93 0.91 0.92 0.97 1.03 1.03 1.08 1.14 1.13
0.13 0.14 0.14 0.14 0.13 0.14 0.17 0.21 0.23 0.20 0.18 0.20 0.24 0.31 0.37 0.42 0.40 0.43 0.49 0.53 0.66 0.98 1.36 1.36 1.33 1.18 1.04 0.96 0.86 0.76 0.71 0.73 0.81 0.82 0.85 0.88 0.88 0.93 0.98 1.01 1.01 1.07 1.10
0.14 0.14 0.15 0.17 0.17 0.17 0.17 0.23 0.34 0.39 0.33 0.23 0.22 0.26 0.34 0.43 0.47 0.55 0.64 0.70 0.74 0.86 0.99 1.02 0.96 0.90 0.83 0.71 0.66 0.64 0.61 0.66 0.75 0.78 0.80 0.83 0.86 0.90 0.92 0.98 1.00 1.02 1.07
0.16 0.18 0.21 0.25 0.24 0.22 0.22 0.29 0.35 0.28 0.27 0.28 0.26 0.25 0.30 0.35 0.43 0.50 0.60 0.64 0.63 0.67 0.67 0.63 0.58 0.58 0.58 0.55 0.54 0.54 0.55 0.60 0.67 0.74 0.77 0.77 0.80 0.85 0.90 0.94 1.01 1.11 1.10
0.13 0.18 0.22 0.29 0.28 0.22 0.24 0.28 0.26 0.26 0.29 0.31 0.30 0.28 0.31 0.32 0.35 0.42 0.49 0.50 0.47 0.46 0.45 0.44 0.44 0.44 0.47 0.47 0.50 0.52 0.53 0.57 0.63 0.70 0.74 0.79 0.79 0.80 0.84 0.91 0.96 1.01 1.01
0.14 0.17 0.20 0.25 0.28 0.24 0.25 0.27 0.26 0.26 0.30 0.32 0.32 0.33 0.36 0.37 0.38 0.41 0.42 0.42 0.44 0.45 0.45 0.45 0.42 0.44 0.47 0.47 0.50 0.54 0.58 0.61 0.64 0.73 0.76 0.78 0.83 0.84 0.84 0.87 0.91 0.91 0.95
0.15 0.17 0.18 0.21 0.25 0.25 0.24 0.27 0.29 0.27 0.27 0.29 0.31 0.34 0.36 0.37 0.36 0.37 0.38 0.40 0.40 0.42 0.48 0.51 0.51 0.50 0.49 0.51 0.55 0.60 0.62 0.65 0.68 0.72 0.79 0.82 0.82 0.84 0.85 0.87 0.91 0.93 0.93
0.16 0.18 0.18 0.19 0.22 0.22 0.22 0.22 0.27 0.29 0.27 0.28 0.30 0.31 0.34 0.35 0.36 0.38 0.40 0.42 0.46 0.48 0.46 0.48 0.53 0.54 0.51 0.52 0.55 0.62 0.68 0.70 0.73 0.78 0.85 0.86 0.82 0.82 0.85 0.85 0.86 0.92 0.94
0.19 0.20 0.21 0.22 0.24 0.24 0.24 0.25 0.26 0.26 0.28 0.32 0.32 0.31 0.35 0.40 0.42 0.39 0.39 0.45 0.48 0.48 0.48 0.48 0.50 0.54 0.55 0.56 0.58 0.60 0.63 0.68 0.74 0.79 0.85 0.90 0.89 0.85 0.87 0.93 0.93 0.95 1.03
0.22 0.24 0.25 0.25 0.28 0.29 0.30 0.30 0.29 0.29 0.31 0.35 0.32 0.32 0.33 0.36 0.40 0.40 0.42 0.47 0.48 0.47 0.48 0.49 0.49 0.52 0.55 0.57 0.59 0.61 0.68 0.72 0.75 0.78 0.83 0.92 0.94 0.92 0.92 0.98 1.05 1.07 1.12
0.25 0.27 0.28 0.30 0.32 0.33 0.33 0.33 0.33 0.33 0.33 0.33 0.32 0.34 0.36 0.40 0.44 0.45 0.47 0.50 0.51 0.50 0.50 0.52 0.52 0.53 0.53 0.54 0.59 0.67 0.72 0.69 0.71 0.78 0.83 0.94 1.02 1.02 1.03 1.05 1.05 1.10 1.14

GEFSGL_prec_meanprecacc_276.txt.gz
Total_Precipitation_Accumulation
1.29 1.30 1.28 1.23 1.13 1.12 1.15 1.14 1.10 1.10 1.14 1.11 1.01 0.96 1.05 1.04 0.99 1.05 1.12 1.20 1.28 1.43 1.56 1.70 1.85 2.09 2.39 2.44 2.39 2.28 2.19 2.07 1.85 1.67 1.49 1.39 1.67 1.77 1.70 1.59 1.57 1.53 1.29
1.20 1.23 1.20 1.09 1.01 1.00 0.98 0.92 0.82 0.78 0.79 0.88 0.98 0.91 0.90 0.93 0.95 1.01 1.03 1.08 1.13 1.24 1.35 1.48 1.65 1.93 2.27 2.48 2.57 2.45 2.31 2.18 2.05 1.92 1.61 1.36 1.46 1.78 1.91 1.85 1.68 1.52 1.36
1.22 1.12 1.02 0.96 0.92 0.92 0.83 0.78 0.75 0.65 0.62 0.66 0.75 0.75 0.84 0.92 0.95 0.99 0.99 1.03 1.07 1.16 1.31 1.37 1.42 1.62 1.81 2.01 2.20 2.34 2.31 2.28 2.27 2.04 1.76 1.50 1.42 1.55 1.80 1.81 1.76 1.76 1.52
1.29 1.20 1.08 1.00 0.95 0.90 0.82 0.79 0.73 0.68 0.69 0.73 0.84 0.87 0.82 0.80 0.85 0.96 1.00 0.98 0.97 1.00 1.08 1.18 1.26 1.31 1.48 1.63 1.73 1.95 2.16 2.39 2.45 2.29 2.04 1.73 1.60 1.48 1.58 1.75 1.82 1.78 1.70
1.28 1.28 1.15 1.09 1.04 0.90 0.81 0.81 0.78 0.79 0.76 0.77 0.86 0.95 1.00 0.95 0.91 0.99 0.96 0.96 0.97 0.95 0.99 0.99 1.06 1.09 1.16 1.34 1.38 1.61 1.95 2.22 2.31 2.37 2.24 1.93 1.68 1.50 1.29 1.41 1.68 1.90 1.89
0.94 1.03 1.02 0.93 0.83 0.80 0.79 0.75 0.70 0.69 0.65 0.62 0.65 0.71 0.79 0.85 1.10 1.04 0.86 0.81 0.86 0.92 0.96 0.96 0.98 0.93 0.91 0.98 1.11 1.23 1.53 1.75 1.90 1.98 1.99 1.83 1.62 1.50 1.45 1.42 1.50 1.64 1.69
0.67 0.77 0.79 0.73 0.66 0.65 0.68 0.65 0.60 0.53 0.54 0.51 0.50 0.49 0.55 0.73 0.84 0.68 0.65 0.68 0.80 0.91 0.98 1.02 0.99 0.92 0.96 0.97 0.99 0.99 1.05 1.23 1.46 1.68 1.70 1.59 1.66 1.57 1.51 1.40 1.42 1.43 1.41
0.43 0.49 0.51 0.51 0.52 0.53 0.53 0.53 0.53 0.49 0.47 0.46 0.51 0.58 0.59 0.62 0.71 0.58 0.55 0.62 0.83 0.95 0.94 0.90 0.98 1.00 1.02 1.08 1.01 1.06 1.00 0.98 1.08 1.13 1.27 1.48 1.64 1.81 1.79 1.68 1.68 1.62 1.52
0.26 0.29 0.31 0.34 0.39 0.46 0.47 0.49 0.58 0.59 0.55 0.53 0.63 0.70 0.65 0.60 0.66 0.63 0.65 0.76 0.90 0.98 0.93 0.94 1.03 1.07 1.21 1.24 1.14 1.19 1.14 1.11 1.08 1.19 1.29 1.40 1.49 1.62 1.77 1.81 1.77 1.74 1.59
0.22 0.22 0.25 0.27 0.31 0.39 0.45 0.46 0.46 0.47 0.51 0.56 0.58 0.55 0.55 0.62 0.72 0.68 0.75 0.89 1.03 1.13 1.08 1.08 1.29 1.24 1.23 1.17 1.11 1.26 1.22 1.08 1.01 1.05 1.11 1.20 1.24 1.35 1.49 1.54 1.68 1.75 1.65
0.24 0.26 0.27 0.29 0.31 0.35 0.33 0.29 0.33 0.38 0.37 0.37 0.38 0.42 0.48 0.63 0.69 0.73 0.90 0.96 1.03 1.19 1.20 1.16 1.12 1.26 1.19 1.10 1.08 1.12 1.25 1.14 1.06 1.09 1.09 1.10 1.11 1.16 1.21 1.29 1.42 1.56 1.63
0.23 0.23 0.23 0.24 0.25 0.26 0.27 0.25 0.26 0.31 0.33 0.34 0.37 0.41 0.46 0.51 0.57 0.64 0.78 0.89 0.96 1.13 1.22 1.10 0.99 1.22 1.17 1.07 0.98 0.99 1.14 1.21 1.20 1.24 1.23 1.15 1.07 1.04 1.04 1.10 1.19 1.30 1.41
0.21 0.21 0.22 0.22 0.23 0.22 0.22 0.26 0.29 0.31 0.33 0.33 0.35 0.41 0.50 0.52 0.52 0.61 0.66 0.74 0.85 1.02 1.09 1.10 1.09 1.11 1.02 0.97 1.06 1.08 1.10 1.13 1.22 1.28 1.17 1.02 0.96 0.96 1.04 1.15 1.25 1.33 1.40
0.20 0.20 0.21 0.21 0.22 0.20 0.20 0.23 0.25 0.27 0.28 0.33 0.38 0.42 0.47 0.51 0.53 0.64 0.75 0.77 0.86 0.92 0.91 0.95 0.96 0.91 0.89 0.93 0.99 1.08 1.12 1.17 1.20 1.14 1.03 0.91 0.92 0.98 1.03 1.08 1.22 1.36 1.48
0.19 0.20 0.18 0.21 0.23 0.20 0.17 0.18 0.21 0.24 0.31 0.37 0.41 0.44 0.44 0.44 0.50 0.63 0.78 0.87 1.00 1.12 1.12 0.97 0.93 0.90 0.88 0.87 0.91 0.96 1.01 1.01 1.03 1.00 0.96 0.95 0.94 0.97 0.99 0.99 1.10 1.18 1.20
0.19 0.20 0.19 0.18 0.18 0.19 0.21 0.19 0.20 0.23 0.29 0.34 0.38 0.41 0.43 0.47 0.47 0.47 0.57 0.74 0.94 1.22 1.46 1.39 1.33 1.21 1.09 0.99 0.94 0.90 0.87 0.87 0.89 0.93 0.94 0.92 0.93 0.98 1.04 1.05 1.08 1.15 1.14
0.16 0.17 0.18 0.18 0.17 0.17 0.19 0.23 0.25 0.23 0.21 0.23 0.28 0.35 0.41 0.47 0.45 0.48 0.53 0.56 0.70 1.02 1.39 1.39 1.36 1.20 1.06 0.99 0.89 0.80 0.75 0.76 0.83 0.84 0.86 0.89 0.90 0.94 1.00 1.02 1.02 1.08 1.11
0.17 0.16 0.17 0.19 0.20 0.20 0.21 0.25 0.36 0.42 0.37 0.26 0.26 0.30 0.39 0.48 0.53 0.61 0.70 0.74 0.76 0.89 1.02 1.04 0.98 0.93 0.86 0.73 0.68 0.67 0.65 0.69 0.79 0.80 0.82 0.84 0.86 0.91 0.93 0.98 1.01 1.03 1.09
0.18 0.19 0.22 0.26 0.25 0.24 0.25 0.31 0.36 0.31 0.29 0.31 0.29 0.28 0.33 0.40 0.48 0.56 0.65 0.68 0.65 0.69 0.69 0.65 0.60 0.59 0.60 0.57 0.55 0.55 0.58 0.63 0.69 0.77 0.79 0.78 0.81 0.86 0.91 0.95 1.03 1.13 1.13
0.15 0.20 0.24 0.31 0.30 0.24 0.26 0.30 0.29 0.28 0.31 0.34 0.32 0.30 0.33 0.35 0.38 0.45 0.52 0.53 0.50 0.49 0.47 0.47 0.46 0.46 0.48 0.48 0.52 0.54 0.55 0.59 0.65 0.71 0.76 0.81 0.81 0.81 0.85 0.93 0.99 1.04 1.04
0.16 0.18 0.22 0.27 0.30 0.26 0.27 0.30 0.28 0.28 0.31 0.35 0.35 0.35 0.38 0.38 0.39 0.42 0.44 0.44 0.46 0.48 0.47 0.47 0.45 0.46 0.48 0.48 0.52 0.56 0.60 0.64 0.66 0.74 0.78 0.81 0.85 0.87 0.88 0.91 0.95 0.96 0.99
0.16 0.17 0.18 0.22 0.26 0.26 0.26 0.29 0.31 0.30 0.29 0.31 0.34 0.37 0.39 0.39 0.38 0.38 0.39 0.41 0.42 0.44 0.50 0.53 0.53 0.52 0.51 0.52 0.57 0.62 0.65 0.67 0.70 0.74 0.80 0.83 0.85 0.86 0.89 0.91 0.95 0.97 0.97
0.18 0.19 0.19 0.20 0.23 0.24 0.24 0.25 0.29 0.32 0.31 0.32 0.35 0.35 0.36 0.37 0.38 0.40 0.41 0.42 0.47 0.50 0.48 0.50 0.55 0.55 0.53 0.53 0.57 0.64 0.70 0.71 0.74 0.79 0.87 0.88 0.84 0.84 0.87 0.87 0.90 0.95 0.98
0.21 0.22 0.23 0.24 0.25 0.26 0.26 0.27 0.28 0.28 0.31 0.35 0.35 0.34 0.37 0.42 0.44 0.40 0.40 0.46 0.49 0.50 0.50 0.50 0.52 0.55 0.56 0.58 0.59 0.61 0.64 0.69 0.75 0.81 0.87 0.92 0.91 0.88 0.90 0.96 0.96 0.98 1.05
0.24 0.26 0.26 0.27 0.30 0.31 0.32 0.32 0.31 0.31 0.33 0.37 0.34 0.33 0.35 0.39 0.43 0.43 0.44 0.48 0.50 0.49 0.50 0.50 0.51 0.53 0.56 0.58 0.61 0.62 0.70 0.75 0.77 0.80 0.85 0.94 0.96 0.94 0.94 1.01 1.07 1.10 1.14
0.26 0.28 0.30 0.31 0.33 0.35 0.35 0.35 0.35 0.35 0.35 0.35 0.34 0.36 0.38 0.42 0.46 0.48 0.50 0.53 0.54 0.53 0.52 0.53 0.54 0.54 0.54 0.55 0.61 0.70 0.75 0.71 0.73 0.80 0.85 0.96 1.04 1.04 1.04 1.06 1.07 1.12 1.16

GEFSGL_prec_meanprecacc_282.txt.gz
Total_Precipitation_Accumulation
1.36 1.37 1.34 1.28 1.17 1.15 1.18 1.17 1.13 1.12 1.16 1.12 1.02 0.97 1.06 1.05 0.99 1.06 1.13 1.20 1.28 1.44 1.58 1.71 1.87 2.12 2.42 2.47 2.43 2.33 2.25 2.12 1.88 1.69 1.51 1.41 1.68 1.78 1.71 1.59 1.58 1.53 1.30
1.25 1.29 1.27 1.15 1.06 1.03 1.01 0.95 0.84 0.79 0.80 0.90 0.99 0.93 0.91 0.94 0.95 1.01 1.04 1.08 1.13 1.25 1.37 1.49 1.67 1.96 2.30 2.51 2.60 2.49 2.36 2.23 2.08 1.94 1.63 1.38 1.47 1.79 1.91 1.85 1.68 1.53 1.37
1.26 1.15 1.05 0.99 0.95 0.96 0.87 0.82 0.78 0.67 0.64 0.68 0.77 0.76 0.84 0.93 0.96 0.99 1.00 1.04 1.08 1.17 1.32 1.38 1.44 1.64 1.83 2.03 2.23 2.37 2.34 2.32 2.29 2.06 1.78 1.51 1.43 1.56 1.80 1.81 1.76 1.77 1.53
1.34 1.24 1.11 1.02 0.97 0.93 0.86 0.83 0.77 0.72 0.72 0.75 0.85 0.88 0.82 0.81 0.86 0.97 1.01 0.98 0.98 1.01 1.09 1.18 1.27 1.33 1.50 1.64 1.75 1.97 2.18 2.41 2.46 2.31 2.05 1.74 1.61 1.50 1.59 1.76 1.83 1.79 1.71
1.33 1.32 1.17 1.12 1.06 0.92 0.85 0.85 0.82 0.83 0.80 0.80 0.88 0.97 1.02 0.97 0.93 1.00 0.97 0.97 0.98 0.96 1.00 1.00 1.07 1.11 1.18 1.35 1.39 1.63 1.95 2.23 2.32 2.38 2.25 1.94 1.68 1.51 1.30 1.42 1.68 1.90 1.90
1.01 1.08 1.05 0.96 0.86 0.83 0.83 0.79 0.74 0.73 0.70 0.67 0.69 0.74 0.82 0.88 1.13 1.07 0.88 0.83 0.88 0.93 0.97 0.97 1.00 0.96 0.93 1.00 1.12 1.24 1.54 1.76 1.91 1.99 2.00 1.84 1.64 1.51 1.47 1.43 1.51 1.65 1.71
0.74 0.85 0.83 0.77 0.70 0.69 0.72 0.69 0.63 0.56 0.57 0.54 0.53 0.52 0.58 0.75 0.88 0.71 0.68 0.70 0.82 0.93 1.00 1.04 1.01 0.94 0.97 0.99 1.00 1.00 1.06 1.24 1.47 1.69 1.71 1.61 1.67 1.59 1.53 1.42 1.43 1.44 1.44
0.49 0.55 0.56 0.55 0.55 0.56 0.56 0.56 0.58 0.53 0.50 0.48 0.53 0.60 0.61 0.65 0.73 0.60 0.57 0.65 0.84 0.96 0.96 0.93 1.00 1.02 1.05 1.11 1.05 1.08 1.02 1.00 1.09 1.14 1.28 1.50 1.65 1.82 1.81 1.71 1.71 1.64 1.55
0.31 0.34 0.36 0.38 0.42 0.48 0.49 0.52 0.62 0.62 0.57 0.55 0.65 0.72 0.67 0.62 0.68 0.65 0.67 0.78 0.91 1.00 0.95 0.96 1.04 1.08 1.23 1.27 1.18 1.22 1.17 1.14 1.11 1.21 1.30 1.42 1.52 1.64 1.80 1.83 1.79 1.76 1.62
0.27 0.27 0.31 0.32 0.34 0.40 0.47 0.48 0.48 0.48 0.52 0.58 0.60 0.56 0.56 0.64 0.74 0.69 0.77 0.91 1.04 1.14 1.10 1.10 1.30 1.25 1.25 1.18 1.13 1.28 1.25 1.12 1.04 1.08 1.13 1.21 1.26 1.37 1.51 1.56 1.70 1.78 1.68
0.30 0.32 0.33 0.33 0.34 0.37 0.35 0.31 0.33 0.39 0.38 0.38 0.39 0.44 0.49 0.64 0.70 0.74 0.92 0.98 1.04 1.20 1.21 1.17 1.13 1.27 1.21 1.12 1.09 1.13 1.27 1.17 1.09 1.12 1.12 1.11 1.13 1.17 1.23 1.31 1.44 1.59 1.65
0.27 0.28 0.27 0.26 0.27 0.28 0.29 0.26 0.27 0.32 0.34 0.35 0.37 0.42 0.47 0.52 0.58 0.65 0.80 0.91 0.98 1.15 1.23 1.11 1.01 1.23 1.18 1.09 0.99 1.01 1.16 1.24 1.23 1.29 1.28 1.18 1.09 1.05 1.05 1.11 1.20 1.32 1.43
0.26 0.25 0.25 0.24 0.25 0.24 0.23 0.26 0.30 0.31 0.34 0.34 0.36 0.42 0.51 0.53 0.53 0.62 0.68 0.75 0.87 1.04 1.11 1.12 1.11 1.13 1.04 0.99 1.07 1.10 1.13 1.15 1.24 1.30 1.20 1.06 0.99 0.97 1.04 1.15 1.26 1.34 1.41
0.25 0.24 0.23 0.22 0.24 0.21 0.22 0.24 0.26 0.28 0.29 0.34 0.39 0.44 0.48 0.51 0.53 0.65 0.76 0.78 0.87 0.93 0.93 0.98 0.99 0.95 0.92 0.94 1.00 1.10 1.14 1.19 1.22 1.15 1.04 0.92 0.93 1.00 1.04 1.08 1.23 1.37 1.50
0.24 0.24 0.21 0.22 0.24 0.21 0.19 0.20 0.23 0.26 0.33 0.39 0.42 0.46 0.46 0.45 0.52 0.65 0.79 0.89 1.02 1.14 1.16 1.02 0.96 0.92 0.89 0.88 0.92 0.98 1.04 1.05 1.06 1.02 0.97 0.96 0.95 0.98 1.00 1.00 1.11 1.20 1.22
0.24 0.24 0.22 0.19 0.19 0.20 0.21 0.20 0.22 0.25 0.33 0.38 0.41 0.43 0.45 0.51 0.51 0.51 0.60 0.77 0.97 1.27 1.52 1.45 1.37 1.23 1.11 0.99 0.94 0.90 0.88 0.91 0.94 0.97 0.96 0.93 0.93 0.99 1.05 1.05 1.09 1.16 1.15
0.21 0.21 0.20 0.19 0.18 0.18 0.20 0.24 0.26 0.25 0.24 0.27 0.31 0.38 0.44 0.50 0.49 0.52 0.56 0.59 0.73 1.06 1.45 1.46 1.41 1.23 1.09 1.00 0.90 0.80 0.76 0.79 0.87 0.89 0.91 0.93 0.92 0.95 1.01 1.03 1.03 1.09 1.13
0.22 0.20 0.20 0.21 0.21 0.21 0.22 0.27 0.38 0.44 0.39 0.29 0.29 0.33 0.42 0.51 0.56 0.65 0.74 0.78 0.80 0.93 1.06 1.09 1.04 0.98 0.90 0.76 0.70 0.68 0.66 0.71 0.81 0.85 0.86 0.87 0.89 0.94 0.95 1.00 1.02 1.04 1.10
0.22 0.23 0.25 0.28 0.26 0.25 0.27 0.33 0.39 0.33 0.32 0.33 0.31 0.31 0.37 0.44 0.53 0.60 0.68 0.70 0.68 0.72 0.72 0.69 0.64 0.64 0.65 0.61 0.58 0.57 0.59 0.64 0.71 0.80 0.84 0.84 0.84 0.88 0.93 0.97 1.04 1.13 1.13
0.18 0.23 0.26 0.33 0.32 0.26 0.28 0.32 0.31 0.31 0.34 0.37 0.35 0.33 0.37 0.38 0.41 0.49 0.56 0.57 0.53 0.51 0.50 0.50 0.49 0.49 0.52 0.53 0.56 0.57 0.58 0.61 0.67 0.74 0.79 0.85 0.85 0.84 0.87 0.95 1.00 1.05 1.06
0.18 0.21 0.24 0.29 0.32 0.28 0.30 0.33 0.31 0.31 0.34 0.38 0.38 0.39 0.41 0.42 0.43 0.45 0.47 0.47 0.49 0.51 0.51 0.50 0.49 0.50 0.52 0.52 0.56 0.60 0.64 0.67 0.69 0.77 0.80 0.84 0.90 0.92 0.91 0.94 0.98 0.98 1.01
0.19 0.20 0.21 0.24 0.28 0.28 0.28 0.31 0.33 0.32 0.31 0.33 0.36 0.40 0.42 0.42 0.40 0.40 0.40 0.42 0.44 0.47 0.53 0.58 0.59 0.59 0.57 0.59 0.63 0.67 0.69 0.71 0.73 0.78 0.84 0.86 0.88 0.90 0.92 0.94 0.98 1.00 1.00
0.19 0.20 0.20 0.21 0.24 0.25 0.25 0.26 0.31 0.33 0.32 0.34 0.37 0.37 0.39 0.40 0.40 0.41 0.42 0.43 0.48 0.51 0.51 0.53 0.58 0.59 0.57 0.58 0.61 0.67 0.74 0.75 0.78 0.83 0.91 0.92 0.88 0.88 0.91 0.91 0.93 0.99 1.01
0.22 0.22 0.23 0.24 0.26 0.27 0.27 0.28 0.30 0.30 0.32 0.37 0.37 0.35 0.39 0.44 0.45 0.42 0.42 0.48 0.51 0.52 0.51 0.51 0.53 0.57 0.58 0.60 0.62 0.64 0.67 0.72 0.78 0.84 0.91 0.96 0.95 0.91 0.93 0.98 0.99 1.01 1.08
0.25 0.26 0.27 0.27 0.30 0.32 0.33 0.33 0.32 0.33 0.35 0.38 0.35 0.35 0.36 0.40 0.44 0.44 0.44 0.49 0.52 0.51 0.51 0.51 0.52 0.54 0.57 0.60 0.63 0.65 0.73 0.78 0.80 0.83 0.89 0.98 1.00 0.98 0.98 1.04 1.10 1.12 1.17
0.28 0.29 0.30 0.32 0.34 0.35 0.36 0.36 0.36 0.36 0.36 0.36 0.35 0.37 0.39 0.43 0.48 0.49 0.52 0.54 0.56 0.54 0.53 0.55 0.55 0.55 0.55 0.57 0.63 0.73 0.78 0.74 0.75 0.82 0.88 0.99 1.07 1.08 1.08 1.09 1.10 1.14 1.19

GEFSGL_prec_meanprecacc_288.txt.gz
Total_Precipitation_Accumulation
1.37 1.39 1.37 1.33 1.22 1.20 1.23 1.19 1.15 1.14 1.18 1.14 1.04 0.98 1.07 1.06 1.00 1.07 1.14 1.21 1.29 1.45 1.60 1.73 1.88 2.14 2.44 2.49 2.46 2.35 2.27 2.16 1.92 1.72 1.53 1.42 1.68 1.78 1.71 1.60 1.58 1.54 1.31
1.28 1.32 1.30 1.19 1.09 1.07 1.06 0.98 0.86 0.81 0.82 0.92 1.01 0.95 0.92 0.95 0.96 1.02 1.04 1.09 1.14 1.26 1.38 1.50 1.68 1.97 2.32 2.54 2.63 2.52 2.38 2.27 2.12 1.98 1.65 1.40 1.48 1.80 1.92 1.86 1.68 1.53 1.37
1.28 1.18 1.08 1.02 0.98 0.98 0.90 0.85 0.80 0.69 0.66 0.69 0.78 0.78 0.86 0.95 0.97 1.00 1.00 1.04 1.09 1.18 1.33 1.39 1.45 1.65 1.85 2.05 2.24 2.38 2.37 2.35 2.33 2.09 1.80 1.53 1.46 1.58 1.81 1.82 1.77 1.77 1.53
1.36 1.27 1.14 1.04 0.99 0.95 0.88 0.85 0.79 0.74 0.74 0.77 0.87 0.89 0.84 0.83 0.88 0.98 1.02 0.99 0.99 1.02 1.09 1.19 1.28 1.34 1.51 1.66 1.76 1.98 2.20 2.44 2.50 2.34 2.08 1.76 1.64 1.52 1.60 1.77 1.84 1.79 1.72
1.36 1.36 1.21 1.15 1.08 0.94 0.86 0.87 0.84 0.86 0.82 0.82 0.90 0.99 1.03 0.99 0.95 1.01 0.99 0.99 1.00 0.98 1.01 1.01 1.08 1.12 1.20 1.37 1.41 1.64 1.97 2.25 2.34 2.41 2.27 1.96 1.70 1.53 1.32 1.44 1.70 1.92 1.91
1.04 1.13 1.09 1.01 0.89 0.85 0.84 0.81 0.76 0.75 0.71 0.69 0.71 0.76 0.84 0.91 1.17 1.09 0.90 0.84 0.91 0.96 1.00 0.99 1.02 0.98 0.95 1.02 1.15 1.27 1.55 1.78 1.93 2.01 2.02 1.85 1.64 1.52 1.48 1.45 1.53 1.66 1.72
0.79 0.89 0.88 0.82 0.73 0.71 0.74 0.71 0.65 0.59 0.60 0.57 0.56 0.54 0.59 0.78 0.90 0.73 0.70 0.71 0.84 0.96 1.04 1.08 1.04 0.97 1.00 1.01 1.03 1.03 1.08 1.26 1.49 1.70 1.72 1.62 1.69 1.60 1.54 1.44 1.45 1.45 1.46
0.55 0.61 0.62 0.62 0.60 0.60 0.59 0.58 0.59 0.55 0.51 0.49 0.54 0.61 0.62 0.67 0.75 0.62 0.59 0.66 0.85 0.98 0.98 0.95 1.04 1.06 1.09 1.14 1.07 1.11 1.03 1.01 1.11 1.15 1.29 1.51 1.67 1.84 1.82 1.72 1.72 1.65 1.56
0.36 0.40 0.43 0.46 0.49 0.53 0.54 0.55 0.64 0.63 0.58 0.56 0.66 0.73 0.67 0.63 0.70 0.66 0.68 0.79 0.92 1.00 0.96 0.97 1.06 1.11 1.25 1.29 1.19 1.24 1.19 1.16 1.14 1.24 1.33 1.45 1.55 1.66 1.81 1.84 1.80 1.77 1.64
0.30 0.32 0.36 0.38 0.41 0.46 0.53 0.53 0.50 0.49 0.53 0.59 0.60 0.56 0.56 0.64 0.76 0.71 0.78 0.92 1.04 1.15 1.11 1.11 1.33 1.28 1.27 1.20 1.14 1.29 1.26 1.13 1.06 1.10 1.16 1.24 1.29 1.40 1.54 1.58 1.72 1.80 1.71
0.33 0.35 0.36 0.37 0.39 0.42 0.41 0.36 0.36 0.40 0.39 0.38 0.40 0.44 0.50 0.65 0.71 0.76 0.94 0.99 1.05 1.20 1.22 1.19 1.16 1.31 1.24 1.14 1.11 1.14 1.28 1.18 1.11 1.14 1.14 1.14 1.16 1.20 1.26 1.33 1.46 1.61 1.69
0.29 0.31 0.31 0.30 0.31 0.33 0.34 0.31 0.29 0.33 0.35 0.36 0.38 0.42 0.47 0.53 0.59 0.66 0.81 0.93 1.00 1.16 1.24 1.13 1.03 1.26 1.21 1.12 1.01 1.02 1.18 1.26 1.25 1.30 1.29 1.20 1.12 1.08 1.08 1.13 1.22 1.34 1.46
0.27 0.26 0.27 0.26 0.27 0.27 0.28 0.31 0.33 0.33 0.35 0.35 0.36 0.42 0.51 0.53 0.54 0.63 0.68 0.76 0.88 1.05 1.12 1.14 1.12 1.16 1.06 1.00 1.09 1.12 1.15 1.17 1.25 1.31 1.21 1.07 1.01 1.00 1.08 1.18 1.29 1.36 1.43
0.25 0.24 0.25 0.25 0.25 0.24 0.25 0.28 0.30 0.31 0.31 0.35 0.40 0.44 0.48 0.52 0.54 0.66 0.76 0.78 0.87 0.94 0.94 0.99 1.00 0.97 0.94 0.96 1.02 1.11 1.16 1.21 1.23 1.17 1.06 0.93 0.95 1.02 1.07 1.12 1.27 1.40 1.52
0.24 0.24 0.22 0.25 0.26 0.24 0.21 0.22 0.26 0.29 0.36 0.41 0.44 0.47 0.47 0.46 0.53 0.67 0.81 0.90 1.03 1.15 1.16 1.03 0.97 0.94 0.91 0.89 0.94 0.99 1.05 1.05 1.07 1.04 1.00 0.99 0.97 0.99 1.01 1.01 1.13 1.22 1.25
0.25 0.24 0.23 0.21 0.22 0.23 0.24 0.21 0.24 0.28 0.36 0.42 0.45 0.46 0.47 0.52 0.53 0.53 0.62 0.78 0.98 1.28 1.54 1.46 1.38 1.24 1.13 1.01 0.95 0.91 0.89 0.92 0.95 0.99 0.99 0.97 0.98 1.03 1.08 1.08 1.11 1.17 1.17
0.22 0.23 0.22 0.21 0.21 0.21 0.22 0.25 0.27 0.27 0.26 0.28 0.33 0.40 0.46 0.52 0.51 0.54 0.58 0.61 0.75 1.08 1.46 1.47 1.44 1.25 1.11 1.02 0.92 0.82 0.77 0.79 0.88 0.90 0.93 0.96 0.96 1.00 1.05 1.06 1.06 1.11 1.14
0.24 0.22 0.22 0.24 0.24 0.25 0.24 0.28 0.39 0.45 0.40 0.30 0.30 0.34 0.43 0.52 0.57 0.67 0.76 0.80 0.83 0.95 1.08 1.11 1.06 1.01 0.92 0.79 0.73 0.72 0.68 0.73 0.83 0.87 0.88 0.90 0.93 0.98 0.99 1.04 1.05 1.07 1.12
0.24 0.26 0.28 0.32 0.29 0.29 0.30 0.35 0.40 0.34 0.32 0.34 0.32 0.33 0.39 0.46 0.54 0.62 0.70 0.72 0.69 0.73 0.74 0.71 0.66 0.67 0.67 0.63 0.61 0.60 0.62 0.67 0.74 0.82 0.86 0.86 0.87 0.91 0.96 1.01 1.08 1.17 1.16
0.20 0.28 0.32 0.37 0.35 0.28 0.31 0.34 0.32 0.31 0.35 0.38 0.35 0.34 0.38 0.40 0.43 0.51 0.58 0.59 0.55 0.53 0.52 0.52 0.52 0.52 0.54 0.55 0.59 0.60 0.61 0.65 0.71 0.77 0.82 0.87 0.88 0.88 0.91 0.98 1.04 1.10 1.10
0.21 0.25 0.29 0.34 0.36 0.31 0.33 0.34 0.32 0.31 0.35 0.39 0.40 0.41 0.43 0.44 0.44 0.47 0.48 0.49 0.51 0.53 0.53 0.53 0.51 0.53 0.55 0.55 0.60 0.65 0.69 0.71 0.73 0.81 0.84 0.87 0.93 0.95 0.95 0.98 1.02 1.02 1.06
0.22 0.25 0.26 0.29 0.31 0.30 0.30 0.32 0.34 0.33 0.32 0.35 0.38 0.41 0.44 0.43 0.41 0.41 0.42 0.44 0.45 0.48 0.55 0.59 0.60 0.60 0.58 0.60 0.65 0.70 0.71 0.73 0.76 0.81 0.87 0.90 0.91 0.93 0.95 0.97 1.02 1.03 1.03
0.22 0.25 0.25 0.26 0.27 0.27 0.27 0.27 0.31 0.34 0.33 0.35 0.38 0.39 0.40 0.41 0.40 0.42 0.43 0.44 0.49 0.52 0.52 0.55 0.60 0.61 0.59 0.59 0.62 0.69 0.76 0.78 0.80 0.86 0.94 0.95 0.92 0.92 0.95 0.95 0.96 1.01 1.03
0.24 0.25 0.27 0.28 0.29 0.28 0.28 0.29 0.30 0.30 0.33 0.38 0.38 0.37 0.40 0.45 0.46 0.43 0.43 0.49 0.51 0.52 0.52 0.52 0.54 0.58 0.59 0.62 0.64 0.66 0.69 0.75 0.81 0.87 0.93 0.99 0.98 0.94 0.97 1.02 1.02 1.04 1.10
0.26 0.28 0.30 0.32 0.33 0.33 0.34 0.34 0.33 0.33 0.36 0.39 0.37 0.36 0.37 0.41 0.46 0.45 0.46 0.50 0.52 0.51 0.51 0.52 0.53 0.55 0.58 0.61 0.64 0.66 0.75 0.80 0.83 0.86 0.91 1.00 1.02 1.01 1.01 1.07 1.13 1.16 1.20
0.29 0.31 0.34 0.36 0.37 0.37 0.37 0.37 0.37 0.37 0.37 0.37 0.36 0.38 0.41 0.44 0.49 0.51 0.53 0.55 0.57 0.55 0.54 0.55 0.56 0.56 0.56 0.57 0.64 0.74 0.79 0.75 0.77 0.84 0.90 1.01 1.09 1.10 1.10 1.12 1.12 1.17 1.22

GEFSGL_prec_meanprecacc_294.txt.gz
Total_Precipitation_Accumulation
1.39 1.41 1.39 1.36 1.25 1.24 1.26 1.23 1.19 1.17 1.21 1.18 1.10 1.04 1.11 1.08 1.02 1.09 1.15 1.21 1.30 1.47 1.61 1.74 1.91 2.16 2.46 2.51 2.48 2.38 2.32 2.20 1.96 1.75 1.55 1.43 1.70 1.79 1.72 1.61 1.58 1.54 1.31
1.31 1.34 1.33 1.21 1.12 1.10 1.09 1.01 0.89 0.84 0.84 0.94 1.05 1.00 0.98 0.99 0.99 1.05 1.06 1.10 1.17 1.29 1.40 1.53 1.72 2.00 2.34 2.55 2.65 2.54 2.41 2.30 2.16 2.00 1.68 1.41 1.50 1.81 1.93 1.87 1.68 1.53 1.38
1.31 1.20 1.09 1.03 1.00 1.01 0.94 0.88 0.83 0.72 0.68 0.71 0.80 0.79 0.88 0.97 0.99 1.02 1.03 1.06 1.11 1.21 1.36 1.43 1.48 1.68 1.88 2.08 2.27 2.41 2.38 2.36 2.34 2.11 1.82 1.55 1.47 1.61 1.84 1.84 1.77 1.77 1.53
1.38 1.29 1.15 1.05 1.01 0.97 0.92 0.88 0.82 0.77 0.77 0.79 0.88 0.91 0.86 0.85 0.90 0.99 1.04 1.02 1.01 1.04 1.12 1.22 1.32 1.38 1.55 1.68 1.79 2.01 2.22 2.46 2.52 2.37 2.10 1.78 1.66 1.54 1.62 1.80 1.87 1.82 1.73
1.39 1.38 1.24 1.17 1.10 0.97 0.89 0.89 0.87 0.89 0.85 0.84 0.92 1.01 1.05 1.01 0.98 1.03 1.00 1.00 1.03 1.00 1.04 1.03 1.11 1.16 1.24 1.41 1.44 1.67 1.99 2.27 2.37 2.45 2.31 2.00 1.74 1.58 1.36 1.47 1.73 1.95 1.94
1.07 1.16 1.13 1.04 0.92 0.88 0.88 0.83 0.79 0.78 0.75 0.71 0.73 0.78 0.86 0.93 1.19 1.11 0.91 0.86 0.92 0.98 1.02 1.02 1.05 1.00 0.99 1.07 1.20 1.31 1.59 1.82 1.96 2.04 2.06 1.89 1.69 1.56 1.52 1.48 1.56 1.70 1.76
0.81 0.93 0.92 0.87 0.77 0.75 0.77 0.73 0.68 0.62 0.62 0.60 0.60 0.57 0.61 0.79 0.92 0.75 0.71 0.72 0.85 0.97 1.05 1.10 1.07 1.00 1.03 1.04 1.07 1.08 1.13 1.32 1.53 1.73 1.76 1.65 1.72 1.63 1.57 1.47 1.49 1.49 1.49
0.56 0.63 0.66 0.66 0.64 0.64 0.64 0.62 0.63 0.58 0.54 0.52 0.57 0.63 0.64 0.69 0.78 0.64 0.60 0.66 0.86 0.99 1.00 0.97 1.06 1.09 1.12 1.17 1.10 1.14 1.07 1.05 1.15 1.18 1.32 1.54 1.70 1.87 1.85 1.75 1.76 1.68 1.60
0.37 0.42 0.47 0.49 0.53 0.57 0.58 0.59 0.68 0.66 0.61 0.58 0.68 0.74 0.69 0.65 0.72 0.67 0.69 0.79 0.92 1.01 0.97 0.99 1.08 1.13 1.29 1.34 1.23 1.28 1.22 1.18 1.17 1.27 1.36 1.48 1.60 1.70 1.84 1.87 1.83 1.80 1.68
0.32 0.35 0.39 0.41 0.44 0.50 0.57 0.57 0.55 0.53 0.56 0.61 0.63 0.58 0.58 0.66 0.78 0.73 0.79 0.92 1.04 1.15 1.12 1.13 1.35 1.31 1.31 1.24 1.18 1.33 1.29 1.15 1.08 1.12 1.18 1.27 1.32 1.43 1.57 1.60 1.73 1.83 1.74
0.36 0.38 0.39 0.40 0.42 0.45 0.44 0.40 0.41 0.46 0.44 0.42 0.43 0.47 0.51 0.66 0.73 0.77 0.94 0.99 1.06 1.21 1.23 1.20 1.17 1.34 1.27 1.18 1.14 1.17 1.31 1.20 1.13 1.16 1.15 1.15 1.17 1.22 1.28 1.35 1.48 1.63 1.72
0.32 0.33 0.32 0.32 0.33 0.36 0.38 0.35 0.34 0.39 0.41 0.41 0.43 0.46 0.50 0.55 0.60 0.67 0.81 0.93 1.00 1.16 1.25 1.13 1.04 1.29 1.25 1.16 1.06 1.06 1.21 1.29 1.27 1.32 1.31 1.22 1.13 1.10 1.09 1.15 1.24 1.37 1.49
0.28 0.26 0.28 0.27 0.29 0.29 0.31 0.35 0.38 0.38 0.39 0.39 0.42 0.47 0.54 0.55 0.55 0.64 0.69 0.76 0.90 1.08 1.17 1.18 1.15 1.19 1.11 1.05 1.13 1.15 1.17 1.19 1.28 1.32 1.22 1.09 1.03 1.03 1.10 1.21 1.31 1.39 1.47
0.26 0.25 0.25 0.26 0.26 0.25 0.28 0.31 0.33 0.35 0.36 0.38 0.43 0.48 0.51 0.55 0.57 0.67 0.77 0.79 0.88 0.95 0.97 1.01 1.01 0.99 0.98 0.99 1.04 1.12 1.17 1.22 1.25 1.19 1.08 0.96 0.97 1.05 1.09 1.14 1.30 1.43 1.56
0.25 0.25 0.23 0.26 0.27 0.25 0.23 0.26 0.30 0.34 0.41 0.46 0.48 0.50 0.50 0.50 0.56 0.69 0.82 0.91 1.04 1.17 1.18 1.04 0.98 0.95 0.93 0.91 0.95 1.00 1.06 1.07 1.09 1.07 1.04 1.02 1.00 1.02 1.04 1.04 1.16 1.25 1.27
0.26 0.25 0.24 0.22 0.23 0.24 0.26 0.24 0.27 0.32 0.41 0.47 0.50 0.50 0.51 0.56 0.57 0.56 0.64 0.80 1.00 1.30 1.55 1.47 1.39 1.26 1.14 1.03 0.97 0.93 0.91 0.93 0.96 1.01 1.02 1.01 1.02 1.07 1.11 1.11 1.14 1.20 1.20
0.23 0.24 0.23 0.22 0.22 0.22 0.24 0.28 0.30 0.29 0.28 0.31 0.36 0.43 0.49 0.55 0.54 0.57 0.61 0.64 0.78 1.11 1.47 1.48 1.45 1.27 1.12 1.03 0.93 0.83 0.79 0.81 0.90 0.91 0.94 0.98 0.99 1.04 1.09 1.09 1.09 1.13 1.17
0.25 0.24 0.24 0.25 0.25 0.27 0.27 0.31 0.41 0.47 0.42 0.32 0.33 0.36 0.45 0.53 0.59 0.69 0.79 0.83 0.86 0.98 1.09 1.12 1.07 1.02 0.94 0.81 0.75 0.74 0.71 0.76 0.86 0.89 0.90 0.91 0.94 1.00 1.03 1.07 1.08 1.09 1.15
0.25 0.27 0.29 0.33 0.30 0.31 0.33 0.38 0.42 0.36 0.34 0.35 0.34 0.34 0.41 0.47 0.55 0.63 0.71 0.73 0.71 0.74 0.75 0.73 0.68 0.68 0.68 0.64 0.62 0.61 0.64 0.69 0.76 0.85 0.89 0.88 0.88 0.94 0.99 1.04 1.11 1.20 1.19
0.21 0.29 0.33 0.39 0.36 0.31 0.36 0.37 0.34 0.33 0.37 0.39 0.36 0.35 0.40 0.42 0.45 0.53 0.59 0.60 0.56 0.54 0.53 0.54 0.53 0.53 0.56 0.57 0.60 0.62 0.63 0.66 0.72 0.79 0.84 0.90 0.91 0.91 0.94 1.01 1.07 1.13 1.13
0.22 0.26 0.31 0.36 0.38 0.34 0.38 0.39 0.35 0.33 0.37 0.40 0.41 0.42 0.45 0.45 0.46 0.48 0.50 0.50 0.52 0.54 0.53 0.53 0.52 0.54 0.56 0.56 0.61 0.66 0.70 0.73 0.75 0.82 0.85 0.89 0.95 0.98 0.98 1.01 1.04 1.05 1.08
0.23 0.26 0.27 0.31 0.33 0.34 0.34 0.37 0.38 0.35 0.34 0.36 0.39 0.43 0.46 0.44 0.42 0.42 0.43 0.45 0.46 0.50 0.56 0.60 0.61 0.60 0.59 0.61 0.65 0.70 0.72 0.74 0.77 0.82 0.88 0.91 0.93 0.96 0.99 1.01 1.05 1.06 1.06
0.23 0.26 0.26 0.27 0.29 0.31 0.30 0.30 0.35 0.36 0.35 0.36 0.39 0.40 0.42 0.42 0.42 0.44 0.45 0.46 0.51 0.53 0.53 0.56 0.61 0.62 0.60 0.60 0.63 0.70 0.76 0.78 0.81 0.87 0.95 0.97 0.94 0.95 0.98 0.97 0.99 1.04 1.06
0.26 0.27 0.29 0.30 0.31 0.31 0.30 0.31 0.33 0.32 0.35 0.39 0.39 0.38 0.42 0.47 0.48 0.45 0.45 0.51 0.54 0.54 0.53 0.53 0.55 0.58 0.60 0.62 0.64 0.67 0.70 0.76 0.82 0.88 0.95 1.01 1.00 0.97 0.99 1.04 1.05 1.06 1.12
0.28 0.31 0.32 0.34 0.35 0.35 0.35 0.36 0.36 0.35 0.37 0.40 0.38 0.38 0.39 0.43 0.48 0.47 0.48 0.53 0.55 0.53 0.53 0.54 0.54 0.56 0.58 0.61 0.65 0.67 0.76 0.82 0.84 0.87 0.93 1.02 1.04 1.03 1.03 1.09 1.15 1.18 1.23
0.32 0.34 0.36 0.37 0.38 0.39 0.39 0.39 0.39 0.39 0.39 0.38 0.37 0.39 0.42 0.46 0.50 0.53 0.55 0.58 0.59 0.58 0.56 0.57 0.57 0.58 0.58 0.59 0.65 0.75 0.80 0.76 0.78 0.86 0.92 1.03 1.12 1.12 1.12 1.14 1.15 1.20 1.25